sat.trackr.live / text

‹ back to catalog

CONNECTA IOT-6

NORAD 62709 · 2025-009DE

PAYLOAD ACTIVE UNKNOWN

§ Identity

Operator
Country
TURK
Launch date
2025-01-14
Launch site
AFWTR
Launch vehicle
Mass (kg)
RCS (m²)

External: N2YO · Heavens-Above · Gunter

§ Orbital elements

Epoch: 2026-05-25T02:11:14.509824Z

Period
96.38 min
Inclination
97.7028°
Eccentricity
0.0001614
Mean motion
14.94153896 rev/d
Perigee alt
583.9 km
Apogee alt
586.1 km
Semi-major
6,963.1 km
B*
1.0911e-4
RAAN
223.8994°
Arg perigee
153.9640°
Mean anomaly
206.1661°
Rev number
7,391

§ Raw data

CONNECTA IOT-61 62709U 25009DE  26145.09114016  .00001111  00000+0  10911-3 0  99982 62709  97.7028 223.8994 0001614 153.9640 206.1661 14.94153896 73918

JSON: /api/v1/satellites/62709 · /tle

For live sub-satellite position, see the globe view (requires WebGL).

§ Visibility from observer

Set your observer location to see the next 7 days of passes ≥ 10°. The values pass through the URL so the page stays shareable.

No JS? Fill the form by hand. The geolocation button needs JavaScript.

§ Radio — SatNOGS DB

ModeDescriptionDownlinkUplink
GMSK Mode S - GMSK 4k8 AX.25 TLM 2.240 GHz
GMSK Mode U - GMSK 4k8 AX.25 TLM 401.520 MHz

2 transmitters · refreshed weekly from db.satnogs.org